Regional Weather Roundup
Issued by NWS

Home | Current Version | Previous Version | Text Only | Print | Product List | Glossary Off
Versions: 1 2 3 4 5 6 7 8 9 10 11 12 13 14 15 16 17 18 19 20 21 22 23 24 25 26 27 28 29 30 31 32 33 34 35 36 37 38 39 40 41 42 43 44 45 46 47 48 49 50

000
ASUS45 KBOI 181110
RWRID

IDAHO REGIONAL WEATHER ROUNDUP
NATIONAL WEATHER SERVICE BOISE ID
400 AM MST THU JAN 18 2018

NOTE: "FAIR" INDICATES FEW OR NO CLOUDS BELOW 12000 FEET
WITH NO SIGNIFICANT WEATHER AND/OR OBSTRUCTIONS TO VISIBILITY

IDZ012-014-181200-
SOUTHWEST IDAHO


CITY           SKY/WX    TMP DP  RH WIND       PRES   REMARKS
BOISE          CLOUDY    46  33  60 SE21G29   30.00F
CALDWELL       CLOUDY    44  34  67 SE17      30.01F
MOUNTAIN HOME  CLOUDY    39  39  99 SE23      30.07F WCI  29
$$

IDZ016-017-181200-
SOUTHCENTRAL IDAHO


CITY           SKY/WX    TMP DP  RH WIND       PRES   REMARKS
BURLEY         CLOUDY    39  31  72 VRB3      30.15F
JEROME         CLOUDY    34  29  82 NE20      30.14F WCI  23
TWIN FALLS     CLOUDY    32  31  96 E7        30.13F WCI  26
$$

IDZ019>023-181200-
SOUTHEAST IDAHO


CITY           SKY/WX    TMP DP  RH WIND       PRES   REMARKS
IDAHO FALLS    CLOUDY    29  27  92 NW6       30.23F WCI  23
POCATELLO      CLOUDY    31  30  96 CALM      30.21S
REXBURG        CLOUDY    27  25  92 NE3       30.23F
$$

IDZ006-010-011-018-031-032-181200-
CENTRAL IDAHO MOUNTAINS


CITY           SKY/WX    TMP DP  RH WIND       PRES   REMARKS
MCCALL         CLOUDY    30  28  92 CALM      29.98F
HAILEY         MOCLDY    30  25  80 NW9       30.21F WCI  22
STANLEY          N/A     15  13  91 CALM      30.13F
SALMON         PTCLDY    20  18  92 CALM      30.15F
CHALLIS        CLEAR     20  17  88 CALM      30.15F
$$

IDZ002-004-006-007-026-181200-
NORTHERN IDAHO


CITY           SKY/WX    TMP DP  RH WIND       PRES   REMARKS
LEWISTON       CLOUDY    45  37  73 W7        29.83S
LOWELL           N/A     35  33  92 NW6       29.95F WCI  30
COEUR D`ALENE  LGT RAIN  34  33  96 E7        29.84R WCI  28
MULLAN PASS    CLOUDY    36  32  85 S8        29.80F WCI  30
$$



USA.gov is the U.S. government's official web portal to all federal, state and local government web resources and services.